Perry, IA

2:06 AM CDT on March 24, 2017 (GMT -0500)
Perry Municipal

Weather History for KPRO - February, 2014

Change the Weather History Date:

Friday, February 28, 2014

  Actual Average Record
Temperature  
Mean Temperature 16 °F -  
Max Temperature 32 °F 40 °F 64 °F (1981)
Min Temperature 1 °F 22 °F -18 °F (1962)
Degree Days  
Heating Degree Days 48    
Moisture  
Dew Point 10 °F    
Average Humidity 72    
Maximum Humidity 90    
Minimum Humidity 56    
Precipitation  
Precipitation 0.00 in - - ()
Sea Level Pressure  
Sea Level Pressure 29.93 in    
Wind  
Wind Speed 13 mph (East)    
Max Wind Speed 21 mph    
Max Gust Speed 24 mph    
Visibility 8 miles    
Events Snow    
Averages and records for this station are not official NWS values.
T = Trace of Precipitation, MM = Missing Value Source: NWS Daily Summary

Daily Weather History Graph

Daily Weather History Graph

Search for Another Location

Airport or City:

Trip Planner

Search our weather history database for the weather conditions in past years. The results will help you decide how hot, cold, wet, or windy it might be!

Date:

Astronomy

Feb. 28, 2014 Rise Set
Actual Time 6:53 AM CST 6:05 PM CST
Civil Twilight 6:25 AM CST 6:33 PM CST
Nautical Twilight 5:52 AM CST 7:06 PM CST
Astronomical Twilight 5:20 AM CST 7:38 PM CST
Moon 6:08 AM CST (2/28) 5:43 PM CST (2/28)
Length of Visible Light 12h 08m
Length of Day
11h 12m
Waning Crescent, 1% of the Moon is Illuminated
Feb 28
Waning Crescent
Mar 1
New
Mar 8
First Quarter
Mar 16
Full
Mar 23
Last Quarter

Hourly Weather History & Observations

Time (CST) Temp. Windchill Dew Point Humidity Pressure Visibility Wind Dir Wind Speed Gust Speed Precip Events Conditions
12:15 AM 1.0 °F -16.6 °F -6.7 °F 70% 29.99 in 10.0 mi ESE 12.7 mph - N/A   Scattered Clouds
12:35 AM 1.2 °F -15.6 °F -6.3 °F 71% 29.99 in 10.0 mi ESE 11.5 mph - N/A   Scattered Clouds
12:55 AM 1.4 °F -15.3 °F -5.8 °F 72% 29.99 in 10.0 mi ESE 11.5 mph - N/A   Mostly Cloudy
1:15 AM 2.3 °F -15.7 °F -5.1 °F 71% 29.98 in 10.0 mi ESE 13.8 mph - N/A   Overcast
1:35 AM 3.2 °F -13.9 °F -4.2 °F 71% 29.97 in 10.0 mi ESE 12.7 mph - N/A   Overcast
1:55 AM 3.9 °F -13.7 °F -3.6 °F 71% 29.96 in 10.0 mi ESE 13.8 mph - N/A   Overcast
2:15 AM 5.0 °F -12.3 °F -2.6 °F 71% 29.96 in 10.0 mi ESE 13.8 mph - N/A   Overcast
2:35 AM 5.5 °F -10.9 °F -2.4 °F 70% 29.95 in 10.0 mi ESE 12.7 mph - N/A   Overcast
2:55 AM 6.6 °F -12.1 °F -1.7 °F 69% 29.94 in 10.0 mi SE 17.3 mph - N/A   Overcast
3:15 AM 7.2 °F -10.8 °F -2.0 °F 66% 29.94 in 10.0 mi ESE 16.1 mph - N/A   Overcast
3:35 AM 7.3 °F -9.3 °F -1.3 °F 68% 29.94 in 10.0 mi ESE 13.8 mph - N/A   Overcast
3:55 AM 7.7 °F -10.1 °F -0.8 °F 68% 29.92 in 10.0 mi SE 16.1 mph - N/A   Overcast
4:15 AM 8.2 °F -9.4 °F -0.6 °F 67% 29.91 in 10.0 mi ESE 16.1 mph - N/A   Mostly Cloudy
4:35 AM 8.6 °F -7.7 °F -0.0 °F 68% 29.91 in 10.0 mi ESE 13.8 mph - N/A   Clear
4:55 AM 9.3 °F -6.8 °F -0.4 °F 65% 29.90 in 10.0 mi SE 13.8 mph 20.7 mph N/A   Clear
5:15 AM 9.5 °F -5.9 °F -0.2 °F 65% 29.90 in 10.0 mi ESE 12.7 mph - N/A   Clear
5:35 AM 9.7 °F -7.5 °F 0.3 °F 66% 29.89 in 10.0 mi SE 16.1 mph - N/A   Clear
5:55 AM 10.2 °F -5.0 °F 0.7 °F 65% 29.89 in 10.0 mi SE 12.7 mph - N/A   Clear
6:15 AM 10.4 °F -7.2 °F 0.9 °F 65% 29.88 in 10.0 mi SE 17.3 mph - N/A   Clear
6:35 AM 10.8 °F -5.6 °F 1.2 °F 65% 29.87 in 10.0 mi SE 15.0 mph - N/A   Scattered Clouds
6:55 AM 10.9 °F -7.0 °F 1.4 °F 65% 29.86 in 10.0 mi SE 18.4 mph - N/A   Scattered Clouds
7:15 AM 11.1 °F -6.7 °F 1.6 °F 66% 29.86 in 10.0 mi SE 18.4 mph 24.2 mph N/A   Mostly Cloudy
7:35 AM 11.7 °F -6.5 °F 2.1 °F 66% 29.85 in 10.0 mi SE 19.6 mph - N/A   Overcast
7:55 AM 12.2 °F -6.3 °F 2.5 °F 65% 29.85 in 10.0 mi SE 20.7 mph 24.2 mph N/A   Overcast
8:15 AM 12.6 °F -5.8 °F 3.0 °F 66% 29.85 in 10.0 mi SSE 20.7 mph - N/A   Scattered Clouds
8:35 AM 13.1 °F -3.7 °F 3.9 °F 67% 29.85 in 10.0 mi SSE 17.3 mph - N/A   Scattered Clouds
8:55 AM 14.0 °F -3.0 °F 4.6 °F 66% 29.84 in 10.0 mi SSE 18.4 mph - N/A   Clear
9:15 AM 14.5 °F -3.2 °F 5.0 °F 66% 29.84 in 10.0 mi SSE 20.7 mph - N/A   Clear
9:35 AM 15.3 °F -1.3 °F 5.7 °F 66% 29.84 in 10.0 mi SSE 18.4 mph - N/A   Clear
9:55 AM 16.7 °F 1.5 °F 7.2 °F 66% 29.84 in 10.0 mi SSE 16.1 mph - N/A   Clear
10:15 AM 18.3 °F 4.1 °F 8.6 °F 66% 29.84 in 10.0 mi SSE 15.0 mph - N/A   Clear
10:35 AM 19.4 °F 6.0 °F 9.3 °F 65% 29.84 in 10.0 mi SSE 13.8 mph - N/A   Clear
10:55 AM 21.0 °F 10.6 °F 10.8 °F 65% 29.85 in 10.0 mi SSE 9.2 mph - N/A   Clear
11:15 AM 22.8 °F 12.2 °F 11.8 °F 63% 29.86 in 10.0 mi South 10.4 mph - N/A   Clear
11:35 AM 24.3 °F 14.6 °F 13.3 °F 63% 29.86 in 10.0 mi South 9.2 mph - N/A   Clear
11:55 AM 25.3 °F 14.7 °F 14.4 °F 63% 29.86 in 10.0 mi South 11.5 mph - N/A   Clear
12:15 PM 27.1 °F 18.2 °F 14.7 °F 60% 29.85 in 10.0 mi South 9.2 mph - N/A   Mostly Cloudy
12:35 PM 28.2 °F 19.5 °F 15.8 °F 60% 29.85 in 10.0 mi South 9.2 mph - N/A   Scattered Clouds
12:55 PM 29.8 °F 23.0 °F 16.7 °F 58% 29.84 in 10.0 mi South 6.9 mph - N/A   Scattered Clouds
1:15 PM 30.9 °F - 16.7 °F 56% 29.83 in 10.0 mi Calm Calm - N/A   Scattered Clouds
1:35 PM 30.7 °F - 16.7 °F 56% 29.83 in 10.0 mi Calm Calm - N/A   Mostly Cloudy
1:55 PM 31.1 °F 27.7 °F 17.4 °F 57% 29.84 in 10.0 mi North 3.5 mph - N/A   Scattered Clouds
2:15 PM 32.0 °F 26.4 °F 18.0 °F 56% 29.84 in 10.0 mi NNW 5.8 mph - N/A   Scattered Clouds
2:35 PM 30.2 °F 20.8 °F 17.8 °F 60% 29.85 in 10.0 mi North 11.5 mph - N/A   Mostly Cloudy
2:55 PM 28.9 °F 19.2 °F 18.1 °F 64% 29.86 in 10.0 mi North 11.5 mph - N/A   Mostly Cloudy
3:15 PM 28.2 °F 17.7 °F 18.3 °F 66% 29.87 in 10.0 mi North 12.7 mph - N/A   Mostly Cloudy
3:35 PM 27.0 °F 15.2 °F 17.6 °F 68% 29.88 in 10.0 mi North 15.0 mph - N/A   Overcast
3:55 PM 27.1 °F 18.9 °F 17.8 °F 68% 29.89 in 10.0 mi North 8.1 mph - N/A   Overcast
4:20 PM 27.9 °F 18.4 °F 18.5 °F 68% 29.90 in 10.0 mi North 10.4 mph - N/A   Overcast
4:35 PM 27.3 °F 17.1 °F 18.3 °F 69% 29.91 in 10.0 mi North 11.5 mph - N/A   Overcast
4:55 PM 25.3 °F 13.6 °F 19.4 °F 78% 29.92 in 1.8 mi North 13.8 mph - N/A Snow Light Snow
5:15 PM 23.7 °F 14.0 °F 20.8 °F 89% 29.93 in 0.8 mi North 9.2 mph - N/A Snow Light Snow
5:35 PM 23.7 °F 11.0 °F 21.0 °F 89% 29.94 in 1.2 mi North 15.0 mph - N/A Snow Light Snow
5:55 PM 23.4 °F 10.6 °F 19.9 °F 87% 29.95 in 1.5 mi North 15.0 mph - N/A Snow Light Snow
6:15 PM 23.2 °F 11.4 °F 20.3 °F 89% 29.96 in 1.2 mi North 12.7 mph - N/A Snow Light Snow
6:35 PM 23.4 °F 11.6 °F 20.1 °F 87% 29.97 in 2.0 mi NNW 12.7 mph - N/A Snow Light Snow
6:55 PM 23.0 °F 11.1 °F 20.3 °F 89% 29.97 in 2.0 mi North 12.7 mph - N/A Snow Light Snow
7:15 PM 22.8 °F 11.5 °F 20.3 °F 90% 29.98 in 1.0 mi North 11.5 mph - N/A Snow Snow
7:35 PM 22.6 °F 11.3 °F 19.4 °F 87% 29.99 in 1.8 mi NNW 11.5 mph - N/A Snow Light Snow
7:55 PM 22.5 °F 9.4 °F 19.2 °F 87% 30.00 in 2.5 mi NNW 15.0 mph - N/A Snow Light Snow
8:15 PM 22.1 °F 8.0 °F 18.9 °F 87% 30.01 in 2.5 mi North 17.3 mph - N/A Snow Light Snow
8:35 PM 20.8 °F 7.9 °F 17.6 °F 87% 30.01 in 3.0 mi North 13.8 mph - N/A Snow Light Snow
9:00 PM 20.3 °F 6.6 °F 16.7 °F 86% 30.04 in 1.8 mi North 15.0 mph 21.9 mph N/A Snow Light Snow
9:15 PM 19.9 °F 6.7 °F 16.2 °F 85% 30.04 in 3.0 mi North 13.8 mph - N/A Snow Light Snow
9:35 PM 19.9 °F 5.7 °F 15.8 °F 84% 30.06 in 7.0 mi North 16.1 mph - N/A Snow Light Snow
9:55 PM 19.9 °F 7.3 °F 16.0 °F 85% 30.07 in 5.0 mi North 12.7 mph - N/A Snow Light Snow
10:15 PM 19.9 °F 6.7 °F 16.0 °F 85% 30.08 in 4.0 mi North 13.8 mph - N/A Snow Light Snow
10:35 PM 19.9 °F 8.6 °F 16.0 °F 85% 30.09 in 5.0 mi North 10.4 mph - N/A Snow Light Snow
10:55 PM 20.3 °F 9.0 °F 16.3 °F 85% 30.09 in 10.0 mi NNW 10.4 mph - N/A Snow Light Snow
11:15 PM 20.3 °F 7.2 °F 15.4 °F 81% 30.10 in 10.0 mi North 13.8 mph - N/A   Overcast
11:35 PM 20.3 °F 7.7 °F 15.4 °F 81% 30.11 in 10.0 mi North 12.7 mph - N/A   Overcast
11:55 PM 20.3 °F 7.2 °F 15.4 °F 81% 30.10 in 10.0 mi North 13.8 mph - N/A   Overcast